This demonstration page uses our WeatherBlox Daily Observations layout. Learn more.

Left ArrowRight Arrow

38.88101, -77.10428

Hourly Observations for January 8, 2021

Temp ( °F °C ) Dew Point ( °F °C ) Humidity (%) Winds ( mph kmh ) Pressure ( in mb ) Visibility ( mi km ) Precip ( " mm )
12:52 am 00:52 Mostly Cloudy 37 2.8 25 -3.9 62 62 NW 7 11 30.14 1021 10 16 0.00 0.00
1:52 am 01:52 Mostly Cloudy 35 1.7 25 -3.9 67 67 NNW 8 13 30.12 1020 10 16 0.00 0.00
2:52 am 02:52 Mostly Cloudy 36 2.2 25 -3.9 64 64 NNE 13 20 30.09 1019 10 16 0.00 0.00
3:52 am 03:52 Mostly Cloudy 36 2.2 24 -4.4 62 62 NNE 13 20 30.07 1018 10 16 0.00 0.00
4:52 am 04:52 Cloudy 35 1.7 24 -4.4 64 64 NNE 7 11 30.07 1018 10 16 0.00 0.00
5:52 am 05:52 Cloudy 34 1.1 24 -4.4 67 67 ENE 5 7 30.09 1019 10 16 0.00 0.00
6:52 am 06:52 Cloudy 34 1.1 23 -5 64 64 WNW 6 9 30.09 1019 10 16 0.00 0.00
7:52 am 07:52 Cloudy 34 1.1 24 -4.4 67 67 NNW 9 15 30.07 1018 10 16 0.00 0.00
8:52 am 08:52 Cloudy 34 1.1 24 -4.4 67 67 N 9 15 30.06 1018 10 16 0.00 0.00
9:52 am 09:52 Cloudy 34 1.1 24 -4.4 67 67 NNE 7 11 30.07 1018 10 16 0.00 0.00
10:52 am 10:52 Cloudy 35 1.7 24 -4.4 64 64 NE 3 6 30.06 1018 10 16 0.00 0.00
11:52 am 11:52 Cloudy 36 2.2 24 -4.4 62 62 NNW 5 7 30.03 1017 10 16 0.00 0.00
12:52 pm 12:52 Cloudy 37 2.8 25 -3.9 62 62 NNW 5 7 29.98 1015 10 16 0.00 0.00
1:52 pm 13:52 Cloudy 38 3.3 24 -4.4 57 57 NNE 5 7 29.96 1015 10 16 0.00 0.00
2:52 pm 14:52 Cloudy 38 3.3 24 -4.4 57 57 N 6 9 29.95 1014 10 16 0.00 0.00
3:52 pm 15:52 Cloudy 38 3.3 24 -4.4 57 57 N 8 13 29.94 1014 10 16 0.00 0.00
4:52 pm 16:52 Cloudy 38 3.3 24 -4.4 57 57 NNW 8 13 29.94 1014 10 16 0.00 0.00
5:52 pm 17:52 Cloudy 37 2.8 25 -3.9 62 62 N 12 19 29.93 1013 10 16 0.00 0.00
6:52 pm 18:52 Mostly Cloudy 37 2.8 24 -4.4 59 59 NNW 14 22 29.93 1014 10 16 0.00 0.00
7:52 pm 19:52 Mostly Cloudy 35 1.7 24 -4.4 64 64 N 14 22 29.92 1013 10 16 0.00 0.00
8:52 pm 20:52 Partly Cloudy 34 1.1 24 -4.4 67 67 NNW 12 19 29.91 1013 10 16 0.00 0.00
9:52 pm 21:52 Partly Cloudy 34 1.1 24 -4.4 67 67 NNW 9 15 29.91 1013 10 16 0.00 0.00
10:52 pm 22:52 Mostly Cloudy 34 1.1 24 -4.4 67 67 NNW 13 20 29.90 1013 10 16 0.00 0.00
11:52 pm 23:52 Mostly Cloudy 33 0.6 24 -4.4 70 70 NNW 13 20 29.88 1012 10 16 0.00 0.00

Powered by AerisWeather